Find Starlink 31987

NORAD ID: 60017 Int'l Des: 2024-111 Owner: SPXS Country: US Constellation: starlink operational
LEOCIRCULAR

Current View

Loading 3D Globe...

About Starlink 31987

Starlink 31987 (NORAD 60017) is a starlink constellation satellite (v2 mini) launched Jun 8, 2024 by SPXS of US. It operates in LEO, CIRCULAR orbit with a mass of 730.00 kg.

About Starlink 31987

Description loading...

Upcoming Passes

Passes for default location (London). Set your location on the main map for personalized predictions.

Altitude History

Loading altitude history...

Two-Line Element Set

1 60017U 24111B 26170.69832811 -.00001180 00000-0 -26267-4 0 9996
2 60017 53.1613 321.6597 0001100 82.2092 277.9035 15.31713190114610
Epoch: Jun 19, 2026 • Age: 32 hours

Current Status

Altitude 472.0 km
Velocity 7.63 km/s
Sub-Earth Point 30.19°N, 169.86°W
Launch Date Jun 8, 2024
Age 2 years
Type internet

Technical Details

Classification Payload
Mass 730.00 kg
Dry Mass 700.00 kg
Total Mass 730.00 kg
Length 0.30 m
Diameter 4.10 m
Span 29.00 m
Shape Box + pan
Manufacturer SPXS
Bus Type Starlink V2M
Phase Status In Orbit
Owner/State SPXS/US

Most Searched